Time,TemperatureF,DewpointF,PressureIn,WindDirection,WindDirectionDegrees,WindSpeedMPH,WindSpeedGustMPH,Humidity,HourlyPrecipIn,Conditions,Clouds,dailyrainin,SoftwareType,DateUTC
2013-04-16 00:02:00,27.0,24.0,30.03,West,280,8.0,11.0,88,0.00,,,0.06,,2013-04-16 06:02:00,
2013-04-16 00:12:00,27.0,24.0,30.03,West,280,8.0,11.0,88,0.00,,,0.06,,2013-04-16 06:12:00,
2013-04-16 00:22:00,27.0,24.0,30.03,WNW,290,7.0,11.0,88,0.00,,,0.06,,2013-04-16 06:22:00,
2013-04-16 00:32:00,27.0,24.0,30.03,WNW,287,6.0,9.0,88,0.00,,,0.06,,2013-04-16 06:32:00,
2013-04-16 00:42:00,27.0,24.0,30.03,WNW,287,6.0,9.0,88,0.00,,,0.06,,2013-04-16 06:42:00,
2013-04-16 00:52:00,27.0,24.0,30.03,WNW,287,6.0,9.0,88,0.00,,,0.06,,2013-04-16 06:52:00,
2013-04-16 01:02:00,27.0,24.0,30.03,WNW,287,6.0,9.0,88,0.00,,,0.06,,2013-04-16 07:02:00,
2013-04-16 03:22:00,27.0,24.0,30.02,NNW,330,3.0,5.0,89,0.00,,,0.06,,2013-04-16 09:22:00,
2013-04-16 03:33:00,27.0,24.0,30.03,NNW,330,2.0,5.0,88,0.00,,,0.06,,2013-04-16 09:33:00,
2013-04-16 03:43:00,27.0,24.0,30.03,NNW,330,2.0,5.0,88,0.00,,,0.06,,2013-04-16 09:43:00,
2013-04-16 03:53:00,27.0,24.0,30.05,NW,322,4.0,5.0,88,0.00,,,0.06,,2013-04-16 09:53:00,
2013-04-16 04:03:00,26.0,23.0,30.06,NW,321,3.0,6.0,88,0.00,,,0.06,,2013-04-16 10:03:00,
2013-04-16 04:13:00,26.0,23.0,30.06,NW,321,3.0,6.0,88,0.00,,,0.06,,2013-04-16 10:13:00,
2013-04-16 04:23:00,26.0,23.0,30.06,NW,320,3.0,6.0,89,0.00,,,0.06,,2013-04-16 10:23:00,
2013-04-16 04:33:00,26.0,23.0,30.06,NW,320,3.0,6.0,89,0.00,,,0.06,,2013-04-16 10:33:00,
2013-04-16 04:42:00,26.0,23.0,30.06,NW,320,3.0,6.0,89,0.00,,,0.06,,2013-04-16 10:42:00,
2013-04-16 04:52:00,26.0,23.0,30.06,NW,320,3.0,6.0,89,0.00,,,0.06,,2013-04-16 10:52:00,
2013-04-16 07:02:00,24.0,21.0,30.11,NNW,335,4.0,7.0,88,0.00,,,0.06,,2013-04-16 13:02:00,
2013-04-16 07:12:00,24.0,21.0,30.11,NNW,335,4.0,7.0,88,0.00,,,0.06,,2013-04-16 13:12:00,
2013-04-16 07:22:00,24.0,21.0,30.11,NNW,327,2.0,7.0,88,0.00,,,0.06,,2013-04-16 13:22:00,
2013-04-16 07:32:00,24.0,21.0,30.11,NNW,343,2.0,7.0,88,0.00,,,0.06,,2013-04-16 13:32:00,
2013-04-16 07:42:00,24.0,21.0,30.11,NNW,343,2.0,7.0,88,0.00,,,0.06,,2013-04-16 13:42:00,
2013-04-16 07:52:00,24.0,21.0,30.11,NNW,346,2.0,4.0,88,0.00,,,0.06,,2013-04-16 13:52:00,
2013-04-16 08:02:00,24.0,21.0,30.11,NNW,346,2.0,4.0,88,0.00,,,0.06,,2013-04-16 14:02:00,
2013-04-16 08:12:00,24.0,21.0,30.11,NNW,346,2.0,4.0,88,0.00,,,0.06,,2013-04-16 14:12:00,
2013-04-16 08:22:00,24.0,21.0,30.11,NNW,346,2.0,4.0,88,0.00,,,0.06,,2013-04-16 14:22:00,
2013-04-16 10:33:00,30.0,23.0,30.14,North,11,3.0,7.0,75,0.00,,,0.06,,2013-04-16 16:33:00,
2013-04-16 10:42:00,30.0,23.0,30.14,North,11,3.0,7.0,75,0.00,,,0.06,,2013-04-16 16:42:00,
2013-04-16 10:53:00,30.0,22.0,30.14,NNE,30,4.0,7.0,73,0.00,,,0.06,,2013-04-16 16:53:00,
2013-04-16 11:02:00,29.0,22.0,30.14,NE,35,3.0,6.0,75,0.00,,,0.06,,2013-04-16 17:02:00,
2013-04-16 11:12:00,29.0,22.0,30.14,NE,35,3.0,6.0,75,0.00,,,0.06,,2013-04-16 17:12:00,
2013-04-16 11:22:00,28.0,21.0,30.15,NE,53,3.0,5.0,74,0.00,,,0.06,,2013-04-16 17:22:00,
2013-04-16 11:32:00,28.0,21.0,30.15,NE,53,3.0,5.0,74,0.00,,,0.06,,2013-04-16 17:32:00,
2013-04-16 11:43:00,28.0,21.0,30.15,NE,53,3.0,5.0,74,0.00,,,0.06,,2013-04-16 17:43:00,
2013-04-16 11:52:00,28.0,21.0,30.15,NE,53,3.0,5.0,74,0.00,,,0.06,,2013-04-16 17:52:00,
2013-04-16 14:02:00,30.0,22.0,30.16,NE,55,3.0,5.0,73,0.00,,,0.01,,2013-04-16 20:02:00,
2013-04-16 14:12:00,30.0,22.0,30.16,NE,55,3.0,5.0,73,0.00,,,0.01,,2013-04-16 20:12:00,
2013-04-16 14:22:00,30.0,22.0,30.16,ENE,63,2.0,4.0,71,0.00,,,0.01,,2013-04-16 20:22:00,
2013-04-16 14:32:00,30.0,22.0,30.17,ENE,63,1.0,4.0,72,0.00,,,0.00,,2013-04-16 20:32:00,
2013-04-16 14:42:00,30.0,22.0,30.17,ENE,63,1.0,4.0,72,0.00,,,0.00,,2013-04-16 20:42:00,
2013-04-16 14:43:00,30.0,22.0,30.17,ENE,62,2.0,7.0,72,0.00,,,0.00,,2013-04-16 20:43:00,
2013-04-16 14:52:00,30.0,22.0,30.17,ENE,62,2.0,5.0,73,0.00,,,0.00,,2013-04-16 20:52:00,
2013-04-16 15:02:00,30.0,22.0,30.17,ENE,62,2.0,7.0,72,0.00,,,0.00,,2013-04-16 21:02:00,
2013-04-16 15:12:00,30.0,22.0,30.17,ENE,62,2.0,7.0,72,0.00,,,0.00,,2013-04-16 21:12:00,
2013-04-16 15:22:00,30.0,22.0,30.17,ENE,62,2.0,7.0,72,0.00,,,0.00,,2013-04-16 21:22:00,
2013-04-16 15:32:00,30.0,22.0,30.17,ENE,62,2.0,7.0,72,0.00,,,0.00,,2013-04-16 21:32:00,
2013-04-16 17:52:00,31.0,23.0,30.19,NE,44,4.0,6.0,72,0.00,,,0.00,,2013-04-16 23:52:00,
2013-04-16 18:02:00,30.0,22.0,30.19,NE,55,3.0,7.0,72,0.00,,,0.00,,2013-04-17 00:02:00,
2013-04-16 18:12:00,30.0,22.0,30.19,NE,55,3.0,7.0,72,0.00,,,0.00,,2013-04-17 00:12:00,
2013-04-16 18:22:00,30.0,22.0,30.20,NE,55,2.0,5.0,73,0.00,,,0.00,,2013-04-17 00:22:00,
2013-04-16 18:32:00,30.0,22.0,30.20,NE,55,3.0,5.0,73,0.00,,,0.00,,2013-04-17 00:32:00,
2013-04-16 18:42:00,30.0,22.0,30.20,NE,55,3.0,5.0,73,0.00,,,0.00,,2013-04-17 00:42:00,
2013-04-16 18:52:00,30.0,22.0,30.20,NE,55,3.0,5.0,73,0.00,,,0.00,,2013-04-17 00:52:00,
2013-04-16 19:02:00,30.0,22.0,30.20,NE,55,3.0,5.0,73,0.00,,,0.00,,2013-04-17 01:02:00,
2013-04-16 19:12:00,30.0,22.0,30.20,NE,55,3.0,5.0,73,0.00,,,0.00,,2013-04-17 01:12:00,
2013-04-16 21:22:00,28.0,24.0,30.24,ENE,58,3.0,5.0,84,0.00,,,0.00,,2013-04-17 03:22:00,
2013-04-16 21:33:00,28.0,24.0,30.25,ENE,58,1.0,4.0,85,0.00,,,0.00,,2013-04-17 03:33:00,
2013-04-16 21:42:00,28.0,24.0,30.25,ENE,58,1.0,4.0,85,0.00,,,0.00,,2013-04-17 03:42:00,
2013-04-16 21:53:00,28.0,25.0,30.25,ENE,58,0.0,1.0,87,0.00,,,0.00,,2013-04-17 03:53:00,
2013-04-16 22:03:00,27.0,24.0,30.26,ENE,58,0.0,0.0,88,0.00,,,0.00,,2013-04-17 04:03:00,
2013-04-16 22:13:00,27.0,24.0,30.26,ENE,58,0.0,0.0,88,0.00,,,0.00,,2013-04-17 04:13:00,
2013-04-16 22:22:00,27.0,24.0,30.26,ENE,58,0.0,0.0,88,0.00,,,0.00,,2013-04-17 04:22:00,
2013-04-16 22:33:00,27.0,24.0,30.26,ENE,58,0.0,0.0,88,0.00,,,0.00,,2013-04-17 04:33:00,
2013-04-16 22:42:00,27.0,24.0,30.26,ENE,58,0.0,0.0,88,0.00,,,0.00,,2013-04-17 04:42:00,